Location: Lewisville
(33.0462°N, 96.9942°W)
Time: 05:18:33
(UTC-05:00)

ISS - Visible Passes

Search period start: 18 June 2021 00:00
Search period end: 28 June 2021 00:00
Orbit: 417 x 422 km, 51.6° (Epoch: 18 June)

Date Brightness Start Highest point End Pass type
(mag) Time Alt. Az. Time Alt. Az. Time Alt. Az.
22 Jun -1.7 05:40:50 10° S 05:43:29 22° SE 05:46:09 10° ENE visible
23 Jun -1.1 04:54:56 10° SSE 04:56:12 12° SE 04:57:27 10° ESE visible
24 Jun -3.7 05:41:50 10° SW 05:45:12 86° SE 05:48:34 10° NE visible
25 Jun -2.9 04:56:22 26° S 04:57:47 42° SE 05:01:00 10° ENE visible
26 Jun -1.8 04:10:52 21° ESE 04:10:52 21° ESE 04:13:07 10° ENE visible
26 Jun -2.3 05:44:12 10° W 05:47:08 27° NW 05:50:04 10° NNE visible
27 Jun -3.2 04:58:15 29° W 04:59:36 48° NW 05:02:52 10° NE visible
